#timestamp,LO_Frequency,Hit,StdDev 
1457604015.2,286047017.2,Y
1457604035.1,286047016.6,P
1457604036.0,286047016.6,P
1457604055.8,286047011.8,N
1457604075.6,286047012.7,Y
1457604095.5,286046995.9,P
1457604115.3,286046999.7,N
1457604135.1,286047007.6,N
1457604155.9,286047004.5,N
1457604175.7,286047003.5,N
1457604195.5,286047013.7,N
1457604215.4,286047020.4,Y
1457604235.2,286047011.5,P
1457604255.0,286047003.8,N
1457604255.9,286047003.8,N
1457604275.8,286047001.7,N
1457604295.6,286047008.1,N
1457604315.4,286047007.7,N
1457604335.3,286047009.3,Y
1457604355.1,286047008.5,P
1457604356.0,286047008.5,P
1457604375.8,286047005.5,P
1457604395.7,286047007.3,Y
1457604415.5,286047002.6,P
1457604435.3,286046997.7,N
1457604455.1,286046994.6,N
1457604475.9,286047002.6,N
1457604495.7,286047002.6,N
1457604515.6,286046982.7,Y
1457604535.4,286046972.4,P
1457604555.2,286046960.0,N
1457604575.0,286046956.3,N
1457604575.9,286046956.3,N
1457604595.8,286046951.0,N
1457604615.6,286046945.2,Y
1457604635.4,286046969.7,P
1457604655.3,286046966.1,P
1457604675.1,286046962.5,P
1457604695.9,286046958.4,Y
1457604715.7,286046996.4,P
1457604735.5,286046988.8,N
1457604755.3,286046990.0,N
1457604775.2,286046988.2,N
1457604795.9,286046988.0,N
1457604815.7,286046984.7,N
1457604835.6,286046982.7,N
1457604855.4,286046982.8,N
1457604875.2,286046981.3,N
1457604895.1,286046981.7,N
1457604896.0,286046981.7,N
1457604915.8,286046981.5,N
1457604935.6,286046979.8,N
1457604955.5,286046980.0,Y
1457604975.3,286046993.7,P
1457604995.1,286046989.2,N
1457605015.9,286046989.9,N
1457605035.7,286046991.5,N
1457605055.5,286046990.2,N
1457605075.4,286046990.1,Y
1457605095.2,286047000.8,P
1457605115.0,286046999.7,N
1457605115.9,286046999.7,N
1457605135.8,286047002.3,N
1457605155.6,286047001.4,N
1457605175.4,286047001.0,N
1457605195.2,286046997.1,N
1457605215.1,286046995.7,N
1457605216.0,286046995.7,N
1457605235.8,286046997.4,N
1457605255.6,286046995.4,N
1457605275.5,286046998.9,N
1457605295.3,286046996.1,N
1457605315.1,286046995.7,N
1457605335.9,286046996.3,N
1457605355.7,286046990.8,Y
1457605375.5,286046989.0,P
1457605395.4,286046987.9,N
1457605415.2,286046985.0,P
1457605435.0,286046981.8,Y
1457605435.9,286046981.8,P
1457605455.8,286046992.7,N
1457605475.6,286046992.3,N
1457605495.4,286046991.9,N
1457605515.3,286046990.9,N
1457605535.1,286046989.9,N
1457605536.0,286046989.9,N
1457605555.8,286046988.9,Y
1457605575.7,286047000.0,P
1457605595.5,286047004.1,N
1457605615.3,286047001.7,N
1457605635.2,286046999.7,N
1457605655.9,286047002.2,N
1457605675.7,286047003.9,N
1457605695.6,286047015.2,Y
1457605715.4,286047023.3,P
1457605735.2,286047031.2,N
1457605755.1,286047030.6,N
1457605756.0,286047030.6,N
1457605775.8,286047042.8,Y
1457605795.6,286047022.6,P
1457605815.5,286047029.3,P
1457605835.3,286047039.4,P
1457605855.1,286047040.6,Y
1457605875.9,286047015.8,P
1457605895.7,286047021.0,P
1457605915.5,286047026.6,P
1457605935.4,286047032.2,Y
1457605955.2,286047010.0,P
1457605975.0,286047013.7,N
1457605975.9,286047013.7,N
1457605995.8,286047006.0,N
1457606015.6,286047015.6,N
1457606035.4,286047018.4,Y
1457606055.3,286047011.4,P
1457606075.1,286047011.9,P
1457606076.0,286047011.9,P
1457606095.8,286047012.4,Y
1457606115.7,286046985.2,P
1457606135.5,286046971.9,N
1457606155.3,286046959.8,N
1457606175.2,286046953.9,N
1457606195.9,286046949.6,N
1457606215.7,286046945.2,N
1457606235.6,286046940.1,N
1457606255.4,286046934.3,N
1457606275.2,286046933.6,N
1457606295.1,286046928.3,Y
1457606296.0,286046928.3,P
1457606315.8,286046969.1,N
1457606335.6,286046965.6,N
1457606355.5,286046962.3,N
1457606375.3,286046965.9,N
1457606395.1,286046965.0,N
1457606415.8,286046967.4,N
1457606435.7,286046962.8,N
1457606455.5,286046959.0,Y
1457606475.3,286046997.7,P
1457606495.2,286046997.1,N
1457606515.0,286046997.2,N
1457606515.9,286046997.2,N
1457606535.7,286046995.5,N
1457606555.6,286046996.9,N
1457606575.4,286046996.5,N
1457606595.2,286046997.0,N
1457606615.1,286046997.0,N
1457606616.0,286046997.0,N
1457606635.8,286046999.1,N
1457606655.6,286046996.8,N
1457606675.5,286046995.7,N
1457606695.3,286046993.3,N
1457606715.1,286046995.1,N
1457606735.9,286046995.3,N
1457606755.7,286046993.7,N
1457606775.5,286046996.4,N
1457606795.3,286046996.4,N
1457606815.2,286046991.8,N
1457606835.0,286046990.6,N
1457606835.9,286046990.6,N
1457606855.7,286046992.8,N
1457606875.6,286046992.8,N
1457606895.4,286046991.7,N
1457606915.2,286046991.4,N
1457606935.1,286046987.1,N
1457606936.0,286046987.1,N
1457606955.8,286046987.6,N
1457606975.6,286046987.1,N
1457606995.5,286046985.7,Y
1457607015.3,286046991.8,P
1457607035.1,286046991.5,P
1457607055.9,286046990.9,P
1457607075.7,286046989.2,Y
1457607095.5,286046995.2,P
1457607115.4,286046997.7,N
1457607135.2,286046991.9,P
1457607155.0,286046997.7,N
1457607155.9,286046997.7,N
1457607175.8,286046995.6,N
1457607195.6,286046996.2,N
1457607215.4,286046996.1,N
1457607235.3,286046994.6,N
1457607255.1,286046990.7,Y
1457607256.0,286046990.7,P
1457607275.8,286046996.3,N
1457607295.7,286046995.4,N
1457607315.5,286046996.1,N
1457607335.3,286046992.4,Y
1457607355.2,286046997.6,P
1457607375.9,286046992.1,P
1457607395.7,286046992.9,P
1457607415.6,286046994.3,N
1457607435.4,286046998.8,N
1457607455.2,286046998.6,N
1457607475.0,286046997.8,N
1457607476.0,286046997.8,N
1457607495.8,286046996.2,N
1457607515.6,286046994.9,N
1457607535.4,286047000.9,N
1457607555.3,286046998.3,N
1457607575.1,286046994.9,N
1457607595.8,286046997.4,N
